Location: Unspecified
(41.5516°N, 88.1098°W)
Time: 21:11:34
(UTC-05:00)

Hubble Space Telescope - Visible Passes

Search period start: 26 June 2016 00:00
Search period end: 06 July 2016 00:00
Orbit: 539 x 543 km, 28.5° (Epoch: 26 June)

Date Brightness Start Highest point End Pass type
(mag) Time Alt. Az. Time Alt. Az. Time Alt. Az.
01 Jul 2.9 21:53:53 10° SSW 21:54:58 12° S 21:54:58 12° S visible
02 Jul 2.7 21:43:51 10° SSW 21:45:43 13° S 21:46:01 13° S visible
03 Jul 2.7 21:33:54 10° SSW 21:35:53 13° S 21:36:56 12° SSE visible
04 Jul 2.8 21:24:03 10° SSW 21:26:03 13° S 21:27:45 11° SSE visible
05 Jul 2.8 21:14:18 10° SSW 21:16:13 13° S 21:18:09 10° SSE visible
